Weather in Beryozovka

Russia / Khabarovsk Krai     48°33′23″N   135°07′08″E
temp.,
°C
wind,
m/s
gust,
m/s
humid.,
%
clouds,
%
prec.,
mm/h
press.,
hPa
HPBL,
m
19 january, tue
tue1901:00−21sw4897100 0.1 1019253
04:00−24wsw6119172 0.1 1019253
07:00−26wsw712880 0.0 1021274
10:00−26sw813850 0.0 1022366
13:00−23wsw913800 0.0 1024560
16:00−22wsw914730 0.0 1024671
19:00−23sw816730 0.0 1026455
22:00−24sw715820 0.0 1026468
20 january, wed
wed2001:00−24wsw816830 0.0 1027437
04:00−25sw714840 0.0 1027367
07:00−25sw613850 0.0 1028299
10:00−25sw611850 0.0 1028304
13:00−21sw48810 0.0 1028388
16:00−20sw35808 0.0 1025337
19:00−20ese1286100 0.0 102441
22:00−19se1185100 0.0 102224
21 january, thu
thu2101:00−19nne1198100 0.3 101933
04:00−19wnw1298100 0.6 101728
07:00−20wsw499895 0.1 1017186
10:00−21sw7129358 0.1 1019364
13:00−18wsw8128630 0.0 1019519
16:00−17wsw8138240 0.0 1019560
19:00−19wsw714820 0.0 1021395
22:00−22wsw611860 0.0 1021252
22 january, fri
fri2201:00−23sw48870 0.0 1020156
04:00−24sw47890 0.0 1021121
07:00−25wsw46890 0.0 1021115
10:00−25wsw47880 0.0 1022244
13:00−21wsw58810 0.0 1023496
16:00−20wsw610830 0.0 1023520
19:00−22wsw713820 0.0 1026277
22:00−23wsw713800 0.0 1028300
23 january, sat
sat2301:00−23wsw713840 0.0 1028248
04:00−24wsw713790 0.0 1030261
07:00−25wsw713770 0.0 1030254
10:00−24wsw712760 0.0 1032277
13:00−21wsw611760 0.0 1031336
16:00−20sw69820 0.0 1031329
19:00−23sw47840 0.0 1032122
22:00−22sw358335 0.0 1032104